This is the latest recevied weather packets stored in our database for station/object SP1BMW-13. If no packets are shown the sender has not sent any weather packets the latest 1 day(s).
| Time | Temp. | Humidity | Pressure | Rain* | Wind** | Luminosity | Snow |
|---|---|---|---|---|---|---|---|
| 1778032909 | 10° C | 94% | 1006.5 hPa | 0 mm | 0.45 m/s, 42° | 0 W/m² | - |
| 1778032852 | 10° C | 94% | 1006.7 hPa | 0 mm | 0.89 m/s, 67° | 0 W/m² | - |
| 1778032789 | 10° C | 94% | 1006.3 hPa | 0 mm | 0 m/s | 0 W/m² | - |
| 1778032729 | 10° C | 94% | 1006.7 hPa | 0 mm | 0.45 m/s, 48° | 0 W/m² | - |
| 1778032669 | 10° C | 94% | 1006.5 hPa | 0 mm | 0.45 m/s, 46° | 0 W/m² | - |
| 1778032612 | 10° C | 94% | 1006.6 hPa | 0 mm | 0.45 m/s, 54° | 0 W/m² | - |
| 1778032549 | 10° C | 94% | 1006.5 hPa | 0 mm | 0.89 m/s, 50° | 0 W/m² | - |
| 1778032489 | 10° C | 94% | 1006.6 hPa | 0 mm | 0 m/s | 0 W/m² | - |
| 1778032429 | 10° C | 94% | 1006.7 hPa | 0 mm | 0.45 m/s, 43° | 0 W/m² | - |
| 1778032373 | 10° C | 94% | 1006.6 hPa | 0 mm | 0.89 m/s, 4° | 0 W/m² | - |
| 1778032309 | 10° C | 94% | 1006.5 hPa | 0 mm | 1.79 m/s, 47° | 0 W/m² | - |
| 1778032249 | 10° C | 94% | 1006.7 hPa | 0 mm | 0.45 m/s, 56° | 0 W/m² | - |
| 1778032189 | 10° C | 94% | 1006.5 hPa | 0 mm | 0.45 m/s, 339° | 0 W/m² | - |
| 1778032131 | 10° C | 94% | 1006.6 hPa | 0 mm | 0 m/s | 0 W/m² | - |
| 1778032069 | 10° C | 94% | 1006.7 hPa | 0 mm | 0.45 m/s, 67° | 0 W/m² | - |
| 1778032009 | 10° C | 93% | 1006.7 hPa | 0 mm | 0.45 m/s, 45° | 0 W/m² | - |
| 1778031949 | 10° C | 93% | 1006.5 hPa | 0 mm | 0.45 m/s, 33° | 0 W/m² | - |
| 1778031889 | 10° C | 93% | 1006.5 hPa | 0 mm | 0.45 m/s, 41° | 0 W/m² | - |
| 1778031829 | 10° C | 93% | 1006.7 hPa | 0 mm | 0 m/s | 0 W/m² | - |
| 1778031769 | 10° C | 93% | 1006.7 hPa | 0 mm | 0 m/s | 0 W/m² | - |
| 1778031709 | 10° C | 93% | 1006.8 hPa | 0 mm | 0 m/s | 0 W/m² | - |
| 1778031649 | 10° C | 93% | 1006.6 hPa | 0 mm | 0.89 m/s, 30° | 0 W/m² | - |
| 1778031589 | 10° C | 93% | 1006.7 hPa | 0 mm | 0 m/s | 0 W/m² | - |
| 1778031529 | 10° C | 93% | 1006.7 hPa | 0 mm | 1.79 m/s, 306° | 0 W/m² | - |
| 1778031469 | 10° C | 93% | 1006.7 hPa | 0 mm | 1.34 m/s, 34° | 0 W/m² | - |
* Rain latest hour (hover to see other rain measurements)
** Current wind speed in m/s (hover to see current wind gust speed)